www.pogodaiklimat.ru
ПОГОДА в Мунизинге
Время
и дата
12:56 25.10
13:56 25.10
14:56 25.10
15:56 25.10
16:56 25.10
17:56 25.10
18:56 25.10
19:56 25.10
20:56 25.10
21:56 25.10
22:56 25.10
23:56 25.10
00:56 26.10
01:56 26.10
02:56 26.10
03:56 26.10
04:56 26.10
05:56 26.10
06:56 26.10
07:56 26.10
08:56 26.10
09:56 26.10
10:56 26.10
11:56 26.10
12:56 26.10
13:56 26.10
14:56 26.10
15:56 26.10
16:56 26.10
17:56 26.10
18:56 26.10
19:56 26.10
20:56 26.10
21:56 26.10
22:56 26.10
23:56 26.10
00:56 27.10
01:56 27.10
02:56 27.10
03:56 27.10
04:56 27.10
05:56 27.10
06:56 27.10
07:56 27.10
08:56 27.10
09:56 27.10
10:56 27.10
11:56 27.10
Ветер
(напр.,м/с)
Видим. Явления Облачность Т
(С)
Тd
(С)
f
(%)
Тe
(С)
Тes
(С)
Комфортность P
(гПа)
Po
(гПа)
Тmin
(С)
Tmax
(С)
R
(мм)
R24
(мм)
S
(см)
СВ 2 0 м н/о +2.8 0.0 82 -2 -2 1025.1 1002.0 +2.8 0.8
СВ 3
{4}
0 м н/о +2.8 +1.1 89 -3 -3 1024.5 1001.3
СВ 3 0 м н/о +2.8 +0.6 85 -3 -3 1024.3 1001.3
СВ 3 0 м н/о +2.2 -1.1 79 -4 -4 1024.0 1001.0
В 1 0 м н/о +2.2 -1.7 75 -2 -2 1024.3 1001.3
СВ 2 0 м н/о +1.1 -1.1 85 -4 -4 1024.4 1001.3
В 1 0 м н/о +0.6 -1.7 85 -4 -4 1024.7 1001.3 +0.6 +3.3 0.3
СВ 1 0 м н/о +0.6 -1.1 88 -3 -3 1024.6 1001.3
СВ 2 0 м н/о +0.6 -0.6 92 -5 -5 1024.0 1001.0
СВ 2 0 м н/о +1.1 -0.6 88 -4 -4 1024.2 1001.0 1.5
СВ 2 0 м н/о +1.1 -1.1 85 -4 -4 1024.1 1001.0
В 1 0 м н/о 0.0 -1.1 92 -4 -4 1024.0 1001.0
СВ 1 0 м н/о +0.6 -0.6 92 -4 -4 1023.9 1000.7 +1.1 1.8
СВ 1 0 м н/о +1.1 0.0 92 -3 -3 1023.5 1000.3
СВ 1 0 м н/о +0.6 -1.1 88 -3 -3 1023.0 1000.0
В 1 0 м н/о +1.7 -1.1 82 -3 -3 1023.0 1000.0 3.0
С 2 0 м н/о +1.7 -1.1 82 -4 -4 1022.5 999.3
штиль 0 0 м н/о +1.1 -1.7 82 0 0 1022.7 999.7
Ю 1 0 м н/о 0.0 -1.1 92 -4 -4 1023.0 1000.0 +2.2 3.3 6.1
Ю 1 0 м н/о 0.0 -1.1 92 -4 -4 1023.1 1000.0
З 1 0 м н/о 0.0 -1.1 92 -5 -5 1023.7 1000.7
штиль 0 0 м н/о 0.0 -1.1 92 -1 -1 1023.6 1000.3 2.0
ЮЗ 1 0 м н/о +0.6 -1.1 88 -3 -3 1023.5 1000.3
Ю 1 0 м н/о +1.1 -1.1 85 -3 -3 1023.6 1000.3
нст 1 0 м н/о +1.7 -0.6 85 -2 -2 1022.7 999.7 +1.7 2.3
С 4 0 м н/о +2.8 +0.6 85 -4 -4 1023.0 1000.0
С 3 0 м н/о +2.2 0.0 85 -4 -4 1023.8 1000.7
СЗ 3
{4}
0 м н/о +1.7 -0.6 85 -4 -4 1024.0 1001.0 0.3
С 2 0 м н/о +1.1 0.0 92 -5 -5 1024.7 1001.7
С 3 0 м н/о +2.2 -1.1 79 -4 -4 1025.1 1002.0
С 2 0 м н/о +1.7 -1.7 78 -4 -4 1025.8 1002.6 +1.1 +3.3 1.3
З 1 0 м н/о +0.6 -2.2 81 -3 -3 1026.5 1003.3
З 1 0 м н/о 0.0 -3.3 78 -3 -3 1026.6 1003.3
З 2 0 м н/о 0.0 -4.4 72 -5 -5 1026.7 1003.3 0.8
З 1 0 м н/о -0.6 -5.6 69 -5 -5 1026.8 1003.6
З 2 0 м н/о -1.7 -6.7 69 -7 -7 1026.6 1003.3
ЮЗ 1
{4}
0 м н/о -2.2 -7.2 69 -7 -7 1026.9 1003.6 -2.2 +2.2 0.8
ЮЗ 1 0 м н/о -2.8 -7.2 72 -7 -7 1026.8 1003.6
Ю 1 0 м н/о -2.8 -7.2 72 -7 -7 1026.6 1003.3
Ю 1 0 м н/о -3.3 -7.2 74 -7 -7 1026.2 1003.0
Ю 1 0 м н/о -3.3 -7.2 74 -7 -7 1026.1 1002.6
Ю 1 0 м н/о -3.9 -7.2 78 -8 -8 1025.9 1002.6
Ю 1 0 м н/о -5.0 -7.8 81 -9 -9 1025.4 1002.0 -5.0 -2.2 4.3
ЮЗ 1 0 м н/о -5.6 -8.3 81 -11 -11 1025.5 1002.3
Ю 1 0 м н/о -3.9 -8.3 71 -9 -9 1025.0 1001.7
нст 1 0 м н/о -1.7 -8.3 61 -6 -6 1024.1 1001.0
З 2 0 м н/о -0.6 -8.9 53 -6 -6 1023.3 1000.0
ЮЗ 2 0 м н/о 0.0 -7.8 56 -5 -5 1022.7 999.7
Местоположение метеостанции Munising Lakeshore Observation: широта 46.4117 долгота -86.6508 высота над уровнем моря 185 м.
В архиве по умолчанию представлена погода в Мунизинге за последние 1-2 суток. Обновление информации о фактической погоде в базе происходит ежечасно! Архивные данные за месяц целиком и за предыдущие месяцы Вы можете получить, выбрав интересующий диапазон дат из раскрывающегося списка и нажав кнопку "Ввод!".
Внимание! Архив погоды МЕТАР в базе сайта по станциям, не включенным в климатический монитор, хранится не более 60 дней. Нет смысла пытаться выбрать более раннюю дату.
*Определитесь, кто Вы:
Внимание! Время в таблицах - местное (без учета летнего времени). Для получения всемирного времени необходимо вычесть поправку, которая равна -5 ч.
Смотрите также архив погоды в соседних городах и на ближайших метеорологических станциях:
Партнеры нашего сайта:      
Пояснения к столбцам:
  • Ветер - указаны скорость ветра в м/с - средняя за 10 мин, порывы в срок и между сроками (в фигурных скобках) и направление, откуда дует ветер: С - северный,
  • СВ - северо-восточный, В - восточный, ЮВ - юго-восточный, Ю - южный, ЮЗ - юго-западный, З - западный, СЗ - северо-западный.
  • Видимость - горизонтальная дальность видимости в метрах или километрах. При видимости от 1 до 10 км при отсутствии осадков обычно наблюдается дымка, при ухудшении видимости до 1 км и менее - туман. В сухую погоду видимость может ухудшаться дымом, пылью или мглою.
  • Явления - указаны атмосферные явления, наблюдавшиеся в срок или в последний час перед сроком; фигурными скобками обозначены явления, наблюдавшиеся между сроками (за 1-3 часа до срока); квадратными скобками обозначены град или гололедные отложения с указанием их диаметра в мм.
  • Облачность - указаны через наклонную черту общая и нижняя облачность в баллах и высота нижней границы облаков в метрах; квадратными скобками обозначены формы облаков: Ci - перистые, Cs - перисто-слоистые, Cc - перисто-кучевые, Ac - высококучевые, As - высокослоистые, Sc - слоисто-кучевые, Ns - слоисто-дождевые, Cu - кучевые, Cb - кучево-дождевые. Подробнее классификацию облаков см. в Атласе облаков (PDF).
  • T - Температура воздуха - температура, измеренная на высоте 2 м над землей.
  • Td - Температура точки росы - температура, при понижении до которой содержащийся в воздухе водяной пар достигнет насыщения.
  • f - Относительная влажность воздуха - влажноcть воздуха, измеренная на высоте 2 м над землей.
  • Te - Эффективная температура - температура, которую ощущает одетый по сезону человек в тени. Характеристика душности погоды. При расчете учитывается влияние влажности воздуха и скорости ветра на теплоощущения человека.
  • Tes - Эффективная температура на солнце - температура, которую ощущает человек, с поправкой на солнечный нагрев. Характеристика знойности погоды. Зависит от высоты солнца над горизонтом, облачности и скорости ветра. Ночью, в пасмурную погоду, а также при ветре 12 м/с и более поправка равна нулю.
  • P - Атмосферное давление - приведенное к уровню моря атмосферное давление.
  • Po - Атмосферное давление - измеренное на уровне метеостанции атмосферное давление.
  • Tmin - Минимальная температура - минимум температуры воздуха на высоте 2 м над землей.
  • Tmax - Максимальная температура - максимум температуры воздуха на высоте 2 м над землей.
  • R - Количество осадков - Количество выпавших осадков за период времени, мм. При наведении курсора мыши на число - период времени, за который выпало указанное количество осадков.
  • R24 - Количество осадков - Количество выпавших осадков за 24 часа, мм.
  • S - Снежный покров - Высота снежного покрова, см. При наведении курсора мыши на число - состояние снежного покрова и степень покрытия местности в баллах.